This demonstration page uses our WeatherBlox Daily Observations layout. Learn more.

Left ArrowRight Arrow

Hourly Observations for June 5, 2017

Temp ( °F °C ) Dew Point ( °F °C ) Humidity (%) Winds ( mph kmh ) Pressure ( in mb ) Visibility ( mi km ) Precip ( " mm )
12:05 am 00:05 Cloudy 69 20.6 53 11.7 57 57 WNW 18 30 29.71 1006 10 16 0.00 0.03
12:53 am 00:53 Cloudy with Light Rain 63 17.2 58 14.4 84 84 NW 10 17 29.74 1007 10 16 0.01 0.25
1:53 am 01:53 Cloudy with Light Rain 62 16.7 59 15 90 90 N 7 11 29.71 1006 10 16 0.00 0.03
2:24 am 02:24 Cloudy with Light Rain 61 16 59 15 94 94 SW 24 39 29.83 1010 10 16 0.00 0.00
2:53 am 02:53 Cloudy with Light Rain 60 15.6 58 14.4 93 93 WSW 13 20 29.81 1010 10 16 0.04 1.02
3:53 am 03:53 Cloudy 59 15 58 14.4 96 96 WSW 6 9 29.77 1008 10 16 0.01 0.25
4:53 am 04:53 Cloudy with Light Rain 59 15 58 14.4 96 96 WSW 7 11 29.78 1008 10 16 0.01 0.25
5:50 am 05:50 Cloudy 59 15 57 14 94 94 W 9 15 29.80 1009 10 16 0.01 0.25
5:53 am 05:53 Cloudy 59 15 58 14.4 96 96 WNW 9 15 29.79 1009 10 16 0.01 0.25
6:53 am 06:53 Cloudy 59 15 57 13.9 93 93 W 9 15 29.83 1010 10 16 0.00 0.00
7:25 am 07:25 Cloudy 58 14.4 56 13.3 93 93 W 17 28 29.83 1010 10 16 0.00 0.00
7:43 am 07:43 Cloudy 57 13.9 55 12.8 93 93 W 17 28 29.85 1011 10 16 0.00 0.00
7:53 am 07:53 Cloudy 57 13.9 55 12.8 93 93 W 21 33 29.86 1011 10 16 0.00 0.00
8:53 am 08:53 Mostly Cloudy 61 16.1 56 13.3 84 84 W 22 35 29.90 1013 10 16 0.00 0.00
9:53 am 09:53 Cloudy 63 17.2 55 12.8 76 76 W 23 37 29.92 1013 10 16 0.00 0.00
10:15 am 10:15 Cloudy 61 16.1 52 11.1 72 72 WNW 23 37 29.91 1013 10 16 0.00 0.00
10:46 am 10:46 Mostly Cloudy 61 16 52 11 72 72 WNW 24 39 29.91 1013 10 16 0.00 0.00
10:53 am 10:53 Mostly Cloudy 61 16.1 51 10.6 70 70 WNW 24 39 29.96 1014 10 16 0.00 0.00
11:29 am 11:29 Mostly Cloudy 62 16.7 50 10 65 65 NW 28 44 29.97 1015 10 16 0.00 0.00
11:53 am 11:53 Cloudy 60 15.6 49 9.4 67 67 WNW 29 46 30.01 1016 10 16 0.00 0.00
12:53 pm 12:53 Mostly Sunny 65 18.3 46 7.8 51 51 WNW 29 46 30.05 1018 10 16 0.00 0.00
1:53 pm 13:53 Mostly Cloudy 64 17.8 45 7.2 50 50 WNW 26 43 30.07 1018 10 16 0.00 0.00
2:53 pm 14:53 Mostly Cloudy 68 20 44 6.7 42 42 WNW 24 39 30.08 1019 10 16 0.00 0.00
3:53 pm 15:53 Mostly Cloudy 67 19.4 45 7.2 45 45 NW 14 22 30.09 1019 10 16 0.00 0.00
4:53 pm 16:53 Mostly Cloudy 68 20 44 6.7 42 42 NW 15 24 30.10 1019 10 16 0.00 0.00
5:53 pm 17:53 Sunny 69 20.6 43 6.1 39 39 WNW 15 24 30.10 1019 10 16 0.00 0.00
6:53 pm 18:53 Sunny 68 20 44 6.7 42 42 NW 16 26 30.10 1019 10 16 0.00 0.00
7:53 pm 19:53 Sunny 66 18.9 42 5.6 42 42 NW 15 24 30.12 1020 10 16 0.00 0.00
8:53 pm 20:53 Sunny 63 17.2 43 6.1 48 48 NW 12 19 30.13 1020 10 16 0.00 0.00
9:53 pm 21:53 Clear 57 13.9 44 6.7 62 62 NW 5 7 30.16 1022 10 16 0.00 0.00
10:53 pm 22:53 Clear 53 11.7 44 6.7 72 72 WNW 5 7 30.19 1022 10 16 0.00 0.00
11:53 pm 23:53 Clear 47 8.3 43 6.1 86 86 WNW 3 6 30.20 1023 10 16 0.00 0.00

Powered by AerisWeather